TimeCST,TemperatureF,Dew PointF,Humidity,Sea Level PressureIn,VisibilityMPH,Wind Direction,Wind SpeedMPH,Gust SpeedMPH,PrecipitationIn,Events,Conditions,WindDirDegrees,DateUTC
12:53 AM,46.9,46.0,97,30.02,7.0,NNW,8.1,-,N/A,,Overcast,340,2013-01-15 06:53:00
1:53 AM,46.9,46.9,100,30.02,4.0,NW,8.1,-,N/A,,Overcast,310,2013-01-15 07:53:00
2:42 AM,46.4,46.4,100,30.01,2.5,NW,9.2,-,N/A,,Overcast,310,2013-01-15 08:42:00
2:53 AM,46.9,46.0,97,30.01,2.5,WNW,12.7,-,N/A,,Overcast,300,2013-01-15 08:53:00
3:22 AM,46.4,46.4,100,30.01,3.0,NW,12.7,19.6,0.00,Rain,Light Rain,320,2013-01-15 09:22:00
3:53 AM,46.0,46.0,100,30.01,5.0,NNW,13.8,-,0.00,Rain,Light Rain,340,2013-01-15 09:53:00
4:53 AM,46.9,46.0,97,30.00,5.0,NNW,9.2,-,0.02,Rain,Light Rain,340,2013-01-15 10:53:00
5:26 AM,46.4,46.4,100,30.01,9.0,North,11.5,17.3,0.00,Rain,Light Rain,350,2013-01-15 11:26:00
5:53 AM,46.9,46.0,97,30.01,9.0,NNW,8.1,18.4,0.00,,Overcast,340,2013-01-15 11:53:00
6:53 AM,46.9,46.0,97,30.02,6.0,NNW,11.5,16.1,0.01,Rain,Light Rain,340,2013-01-15 12:53:00
7:48 AM,46.4,46.4,100,30.06,2.5,NNW,8.1,-,0.00,,Overcast,340,2013-01-15 13:48:00
7:53 AM,46.9,46.0,97,30.06,2.5,NNW,9.2,-,0.00,,Overcast,330,2013-01-15 13:53:00
8:25 AM,46.4,46.4,100,30.08,3.0,North,10.4,-,N/A,,Overcast,360,2013-01-15 14:25:00
8:39 AM,46.4,46.4,100,30.07,3.0,North,9.2,17.3,N/A,,Overcast,360,2013-01-15 14:39:00
8:53 AM,46.9,46.0,97,30.06,3.0,North,9.2,-,N/A,,Overcast,360,2013-01-15 14:53:00
9:53 AM,48.9,48.0,97,30.07,10.0,North,8.1,-,N/A,,Overcast,350,2013-01-15 15:53:00
10:53 AM,48.9,48.0,97,30.08,3.0,NNW,11.5,-,N/A,,Overcast,340,2013-01-15 16:53:00
11:53 AM,50.0,48.0,93,30.06,10.0,NNW,10.4,19.6,N/A,,Overcast,340,2013-01-15 17:53:00
12:53 PM,48.9,46.9,93,30.03,10.0,North,15.0,24.2,N/A,,Overcast,350,2013-01-15 18:53:00
1:53 PM,48.9,46.9,93,30.03,10.0,NNW,13.8,19.6,N/A,,Overcast,330,2013-01-15 19:53:00
2:53 PM,48.0,45.0,89,30.04,10.0,North,10.4,-,N/A,,Overcast,350,2013-01-15 20:53:00
3:11 PM,48.2,44.6,87,30.04,10.0,North,10.4,-,N/A,,Overcast,350,2013-01-15 21:11:00
3:53 PM,48.0,44.1,86,30.06,10.0,North,8.1,-,0.00,,Light Drizzle,350,2013-01-15 21:53:00
4:53 PM,48.0,43.0,83,30.08,10.0,NNW,12.7,21.9,0.00,,Overcast,330,2013-01-15 22:53:00
5:13 PM,46.4,42.8,87,30.09,10.0,North,12.7,-,N/A,,Overcast,350,2013-01-15 23:13:00
5:45 PM,46.4,42.8,87,30.10,10.0,NNW,11.5,-,N/A,,Overcast,340,2013-01-15 23:45:00
5:53 PM,46.9,43.0,86,30.10,10.0,NNW,10.4,18.4,N/A,,Overcast,340,2013-01-15 23:53:00
6:36 PM,46.4,42.8,87,30.12,10.0,NNW,9.2,-,N/A,,Overcast,340,2013-01-16 00:36:00
6:53 PM,46.0,42.1,86,30.12,10.0,NNW,11.5,18.4,N/A,,Overcast,330,2013-01-16 00:53:00
7:09 PM,46.4,42.8,87,30.13,10.0,NNW,13.8,-,N/A,,Overcast,340,2013-01-16 01:09:00
7:36 PM,46.4,41.0,81,30.15,10.0,NNW,12.7,20.7,N/A,,Overcast,340,2013-01-16 01:36:00
7:53 PM,45.0,41.0,86,30.15,10.0,NNW,11.5,19.6,0.00,Rain,Light Rain,340,2013-01-16 01:53:00
8:53 PM,44.1,41.0,89,30.16,10.0,North,8.1,-,0.00,,Overcast,350,2013-01-16 02:53:00
9:53 PM,45.0,41.0,86,30.17,10.0,NNW,10.4,19.6,N/A,,Overcast,340,2013-01-16 03:53:00
10:53 PM,45.0,39.0,80,30.20,10.0,NNW,13.8,21.9,N/A,,Overcast,340,2013-01-16 04:53:00
11:53 PM,44.1,37.0,76,30.22,10.0,NNW,17.3,27.6,N/A,,Overcast,330,2013-01-16 05:53:00